Regional Weather Roundup
Issued by NWS

Home | Current Version | Previous Version | Text Only | Print | Product List | Glossary On
Versions: 1 2 3 4 5 6 7 8 9 10 11 12 13 14 15 16 17 18 19 20 21 22 23 24 25 26 27 28 29 30 31 32 33 34 35 36 37 38 39 40 41 42 43 44 45 46 47 48 49 50
000
ASUS43 KDTX 211010
RWRMI
MICHIGAN HOURLY REGIONAL WEATHER ROUNDUP
NATIONAL WEATHER SERVICE DETROIT/PONTIAC MI
600 AM EDT SAT APR 21 2018

NOTE: "FAIR" INDICATES FEW OR NO CLOUDS BELOW 12,000 FEET WITH NO
SIGNIFICANT WEATHER AND/OR OBSTRUCTION TO VISIBILITY.

MIZ047>049-052>055-059>063-066>070-074>076-081>083-211100-
SOUTHEAST LOWER MICHIGAN

CITY           SKY/WX    TMP DP  RH WIND       PRES   REMARKS
ADRIAN         FAIR      30  27  88 CALM      30.46S
ALMA           FAIR      30  28  93 CALM      30.46R
ANN ARBOR      FAIR      27  25  92 CALM      30.46S
BAD AXE        FAIR      32  25  76 CALM      30.47R
CARO           FAIR      28  24  84 CALM      30.45S
DETROIT CITY   FAIR      32  23  69 CALM      30.47S
DETROIT        MOCLDY    36  27  69 CALM      30.47S
FLINT          FAIR      30  27  88 CALM      30.46S
GROSSE ILE     FAIR      32  28  86 CALM      30.46S
HILLSDALE      FAIR      36  21  55 S5        30.43S WCI  32
HOWELL         FAIR      31  28  86 SE3       30.45S

CITY           SKY/WX    TMP DP  RH WIND       PRES   REMARKS
JACKSON        FAIR      31  25  78 CALM      30.44S
LAMBERTVILLE   FAIR      32  26  80 CALM      30.46S
LANSING        FAIR      37  24  59 SE3       30.44S
LAPEER         FAIR      28  25  90 CALM      30.46S
MASON          FAIR      32  27  81 CALM      30.44S
MONROE         FAIR      30  28  93 CALM      30.46S FOG
MT. CLEMENS    FAIR      30  27  89 CALM        N/A
PONTIAC        FAIR      30  26  85 CALM      30.45S
PORT HOPE        N/A     30  24  78 CALM      30.44S
PORT HURON     FAIR      25  21  86 CALM      30.48R
TRI CITIES     FAIR      34  27  75 S3        30.46R
MIDLAND        FAIR      28  27  96 CALM      30.45R
TROY           FAIR      35  22  59 CALM      30.48S
SAGINAW HB     FAIR      34  27  75 S5        30.45S WCI  30
$$
MIZ043>046-050>051-056>058-064>065-071>073-077>080-211100-
SOUTHWEST LOWER MICHIGAN

CITY           SKY/WX    TMP DP  RH WIND       PRES   REMARKS
BATTLE CREEK   FAIR      32  26  78 CALM      30.44S
BENTON HARBOR  FAIR      29  22  75 CALM      30.44R
BIG RAPIDS     FAIR      28  20  72 CALM      30.43F
COLDWATER      FAIR      36  25  65 SE5       30.44S WCI  32
FREMONT        FAIR      30  19  61 CALM      30.44S
HOLLAND        FAIR      31  21  66 CALM      30.44S
GRAND RAPIDS   FAIR      31  23  72 CALM      30.43S
IONIA          FAIR      32  25  73 CALM      30.43R
KALAMAZOO      FAIR      33  24  69 CALM      30.44S
LUDINGTON      FAIR      24  22  92 CALM      30.44F
MARSHALL       FAIR      31  28  87 CALM      30.43S
MOUNT PLEASANT FAIR      33  28  82 CALM      30.45R
MUSKEGON       MOCLDY    30  23  75 CALM      30.45R
SOUTH HAVEN    FAIR      29  22  75 CALM      30.43S
$$
MIZ016>042-211100-
NORTHERN LOWER MICHIGAN

CITY           SKY/WX    TMP DP  RH WIND       PRES   REMARKS
ALPENA         FAIR      25  22  88 CALM      30.45S
BEAVER ISLAND  FAIR      31  25  77 E5        30.43S WCI  27
BELLAIRE       FAIR      28  23  81 CALM      30.46R
CADILLAC       FAIR      25  22  90 CALM      30.42S
CHARLEVOIX     FAIR      31  22  69 E5        30.47S WCI  26
FRANKFORT      FAIR      28  21  76 CALM      30.45S
GAYLORD        FAIR      29  20  69 CALM      30.43S
GRAYLING       FAIR      24  20  85 CALM      30.44R
HARBOR SPRINGS FAIR      31  20  64 CALM      30.44S
HOUGHTON LAKE  FAIR      27  23  85 CALM      30.45R
MANISTEE       FAIR      23  21  92 CALM      30.45S
OSCODA         FAIR      28  19  69 CALM      30.46S
PELLSTON       FAIR      26  21  81 CALM      30.44S
ROGERS CITY    FAIR      32  15  49 SW5       30.44F WCI  28
TRAVERSE CITY  FAIR      31  21  66 CALM      30.44R
$$
MIZ007>008-015-211100-
EASTERN UPPER MICHIGAN

CITY           SKY/WX    TMP DP  RH WIND       PRES   REMARKS
KINROSS        FAIR      30  22  72 W5        30.43R WCI  25
MACKINAC ISLAN FAIR      31  21  67 W8        30.43S WCI  23
NEWBERRY       FAIR      30  29  96 CALM      30.41S
S. S. MARIE    FAIR      29  16  58 CALM      30.43R
MUNISING         N/A     33  24  69 CALM      30.39S
$$
MIZ004>006-011>014-085-211100-
CENTRAL UPPER MICHIGAN

CITY           SKY/WX    TMP DP  RH WIND       PRES   REMARKS
MANISTIQUE     FAIR      29  27  94 S6        30.41R WCI  22
ESCANABA       FAIR      28  25  88 CALM      30.41R
MENOMINEE      FAIR      36  22  56 CALM      30.43S
SAWYER-GWINN   FAIR      28  19  71 NE6       30.38S WCI  21
$$
MIZ001>003-009>011-084-211100-
WESTERN UPPER MICHIGAN

CITY           SKY/WX    TMP DP  RH WIND       PRES   REMARKS
IRON MOUNTAIN  FAIR      31  22  69 N5        30.38S WCI  26
HOUGHTON       FAIR      30  15  53 CALM      30.38S
COPPER HARBOR    N/A     35  15  44 W7        30.38F WCI  29
IRONWOOD       FAIR      26  21  81 CALM      30.40F
$$

ABBREVIATIONS USED IN REMARKS
   TC - TEMPERATURE IN CELSIUS
  WCI - WIND CHILL INDEX
   HX - HEAT INDEX
  VSB - VISIBILITY





USA.gov is the U.S. government's official web portal to all federal, state and local government web resources and services.